CTN6TA LQMO-LOWW

Flight info

Callsign CTN6TA
Flight time 1h 1m
Altitude 20000
Route VRANA L187 ZAG/N0451F360 DCT OBUTI OBUTI2W
Aircraft A320/M-SDE3FGHIRWY/LB1

Departure

Time 2026-05-09 18:19
Airport Mostar International Airport (LQMO)

Arrival

Time 2026-05-09 19:20
Airport Vienna International Airport (LOWW)
Time Latitude Longitude Altitude Speed Heading
2026-05-09 18:05 43.28993 17.83755 179 ft 0 kts 40°
2026-05-09 18:16 43.28993 17.83756 179 ft 1 kts 40°
2026-05-09 18:16 43.29016 17.83769 179 ft 6 kts
2026-05-09 18:16 43.29063 17.83782 179 ft 7 kts 46°
2026-05-09 18:17 43.29115 17.83799 179 ft 11 kts 339°
2026-05-09 18:17 43.29196 17.83764 179 ft 12 kts 12°
2026-05-09 18:17 43.29232 17.83831 181 ft 8 kts 68°
2026-05-09 18:17 43.29250 17.83892 181 ft 6 kts 68°
2026-05-09 18:18 43.29264 17.83939 181 ft 4 kts 68°
2026-05-09 18:18 43.29272 17.83974 182 ft 5 kts 77°
2026-05-09 18:18 43.29263 17.84040 182 ft 8 kts 129°
2026-05-09 18:18 43.29149 17.84108 181 ft 42 kts 158°
2026-05-09 18:19 43.28653 17.84385 175 ft 109 kts 157°
2026-05-09 18:19 43.26801 17.85429 799 ft 153 kts 161°
2026-05-09 18:19 43.25756 17.85732 1425 ft 154 kts 175°
2026-05-09 18:20 43.24680 17.85717 2036 ft 155 kts 185°
2026-05-09 18:20 43.23574 17.85403 2384 ft 173 kts 199°
2026-05-09 18:20 43.22411 17.84633 2622 ft 198 kts 215°
2026-05-09 18:20 43.21330 17.83314 2945 ft 220 kts 231°
2026-05-09 18:21 43.20496 17.81443 3413 ft 238 kts 249°
2026-05-09 18:21 43.19973 17.79265 4143 ft 244 kts 253°
2026-05-09 18:21 43.19452 17.77020 4945 ft 249 kts 253°
2026-05-09 18:21 43.18921 17.74743 5750 ft 252 kts 253°
2026-05-09 18:22 43.18385 17.72443 6586 ft 254 kts 253°
2026-05-09 18:22 43.17870 17.70150 7379 ft 256 kts 258°
2026-05-09 18:22 43.17813 17.67690 8188 ft 257 kts 282°
2026-05-09 18:22 43.18471 17.65398 8822 ft 268 kts 304°
2026-05-09 18:23 43.19832 17.63587 9375 ft 279 kts 326°
2026-05-09 18:23 43.21433 17.62101 10121 ft 284 kts 326°
2026-05-09 18:23 43.23110 17.60532 10503 ft 303 kts 325°
2026-05-09 18:23 43.24913 17.58835 10719 ft 325 kts 325°
2026-05-09 18:24 43.26837 17.57019 11247 ft 335 kts 325°
2026-05-09 18:24 43.28768 17.55191 11963 ft 339 kts 325°
2026-05-09 18:24 43.30851 17.53652 12700 ft 343 kts 338°
2026-05-09 18:25 43.35592 17.52850 14102 ft 353 kts 359°
2026-05-09 18:25 43.38058 17.52923 14729 ft 356 kts 358°
2026-05-09 18:25 43.40548 17.52990 15348 ft 359 kts 358°
2026-05-09 18:25 43.43058 17.53047 15958 ft 362 kts 358°
2026-05-09 18:26 43.45591 17.53101 16542 ft 366 kts 357°
2026-05-09 18:26 43.48150 17.53152 17152 ft 369 kts 357°
2026-05-09 18:26 43.50727 17.53205 17768 ft 372 kts 357°
2026-05-09 18:26 43.53328 17.53263 18350 ft 376 kts 356°
2026-05-09 18:27 43.55954 17.53322 18876 ft 379 kts 356°
2026-05-09 18:27 43.57738 17.53364 19234 ft 380 kts 356°
2026-05-09 18:27 43.61257 17.53450 19984 ft 384 kts 356°
2026-05-09 18:27 43.63938 17.53516 20555 ft 386 kts 356°
2026-05-09 18:28 43.66628 17.53577 21111 ft 388 kts 355°
2026-05-09 18:28 43.69331 17.53638 21655 ft 389 kts 355°
2026-05-09 18:28 43.72052 17.53698 22174 ft 392 kts 355°
2026-05-09 18:28 43.74753 17.53442 22717 ft 388 kts 345°
2026-05-09 18:29 43.77355 17.52546 23234 ft 384 kts 336°
2026-05-09 18:29 43.79814 17.51139 23732 ft 383 kts 332°
2026-05-09 18:29 43.82269 17.49661 24145 ft 385 kts 332°
2026-05-09 18:29 43.84732 17.48181 24512 ft 387 kts 332°
2026-05-09 18:30 43.87209 17.46696 24883 ft 388 kts 332°
2026-05-09 18:30 43.89694 17.45211 25260 ft 390 kts 332°
2026-05-09 18:30 43.92188 17.43723 25642 ft 391 kts 332°
2026-05-09 18:30 43.94693 17.42227 26008 ft 393 kts 332°
2026-05-09 18:31 43.97210 17.40720 26370 ft 395 kts 331°
2026-05-09 18:31 43.99736 17.39205 26736 ft 396 kts 331°
2026-05-09 18:31 44.02271 17.37684 27104 ft 398 kts 331°
2026-05-09 18:31 44.04819 17.36152 27461 ft 400 kts 331°
2026-05-09 18:32 44.07382 17.34608 27763 ft 402 kts 331°
2026-05-09 18:32 44.09958 17.33054 28074 ft 404 kts 331°
2026-05-09 18:32 44.12541 17.31494 28397 ft 406 kts 330°
2026-05-09 18:32 44.15134 17.29926 28699 ft 407 kts 330°
2026-05-09 18:33 44.17738 17.28348 29010 ft 409 kts 330°
2026-05-09 18:33 44.20356 17.26763 29330 ft 410 kts 330°
2026-05-09 18:33 44.22945 17.25194 29599 ft 412 kts 330°
2026-05-09 18:33 44.25577 17.23598 29886 ft 413 kts 330°
2026-05-09 18:34 44.28223 17.21992 30155 ft 415 kts 330°
2026-05-09 18:34 44.30874 17.20379 30381 ft 416 kts 330°
2026-05-09 18:34 44.33533 17.18760 30572 ft 418 kts 330°
2026-05-09 18:34 44.36202 17.17138 30806 ft 418 kts 330°
2026-05-09 18:35 44.38866 17.15519 31123 ft 416 kts 330°
2026-05-09 18:35 44.41516 17.13906 31425 ft 415 kts 329°
2026-05-09 18:35 44.44162 17.12293 31715 ft 414 kts 329°
2026-05-09 18:35 44.46799 17.10678 31998 ft 413 kts 329°
2026-05-09 18:36 44.49430 17.09067 32268 ft 412 kts 329°
2026-05-09 18:36 44.51170 17.08002 32450 ft 412 kts 329°
2026-05-09 18:36 44.53791 17.06396 32752 ft 411 kts 329°
2026-05-09 18:36 44.56406 17.04791 33062 ft 409 kts 328°
2026-05-09 18:37 44.59014 17.03190 33370 ft 408 kts 328°
2026-05-09 18:37 44.61609 17.01593 33694 ft 407 kts 328°
2026-05-09 18:37 44.64204 17.00000 33952 ft 406 kts 328°
2026-05-09 18:37 44.66791 16.98412 34239 ft 405 kts 328°
2026-05-09 18:38 44.69372 16.96824 34470 ft 405 kts 328°
2026-05-09 18:38 44.71947 16.95232 34709 ft 405 kts 328°
2026-05-09 18:38 44.74525 16.93636 34928 ft 405 kts 328°
2026-05-09 18:40 44.92576 16.82427 36065 ft 406 kts 328°
2026-05-09 18:40 44.95165 16.80818 36066 ft 406 kts 328°
2026-05-09 18:41 45.00427 16.77814 36064 ft 409 kts 332°
2026-05-09 18:41 45.05796 16.75079 36060 ft 410 kts 332°
2026-05-09 18:42 45.11164 16.72346 36059 ft 410 kts 332°
2026-05-09 18:42 45.16519 16.69542 36063 ft 410 kts 331°
2026-05-09 18:43 45.21854 16.66707 36062 ft 410 kts 331°
2026-05-09 18:43 45.27198 16.63867 36070 ft 410 kts 331°
2026-05-09 18:44 45.32513 16.61065 36070 ft 411 kts 331°
2026-05-09 18:44 45.37910 16.58230 36074 ft 411 kts 331°
2026-05-09 18:45 45.43242 16.55416 36082 ft 411 kts 331°
2026-05-09 18:45 45.48597 16.52583 36081 ft 411 kts 331°
2026-05-09 18:46 45.53948 16.49734 36076 ft 410 kts 331°
2026-05-09 18:46 45.59295 16.46884 36077 ft 411 kts 331°
2026-05-09 18:47 45.64650 16.44031 36083 ft 410 kts 331°
2026-05-09 18:47 45.69994 16.41175 36082 ft 410 kts 331°
2026-05-09 18:48 45.75332 16.38313 36078 ft 409 kts 331°
2026-05-09 18:48 45.80668 16.35452 36083 ft 409 kts 331°
2026-05-09 18:49 45.86000 16.32583 36084 ft 409 kts 331°
2026-05-09 18:49 45.91584 16.30538 36085 ft 426 kts 346°
2026-05-09 18:50 45.97533 16.30125 36089 ft 428 kts 348°
2026-05-09 18:50 46.03491 16.29742 36093 ft 428 kts 348°
2026-05-09 18:51 46.09443 16.29337 36102 ft 428 kts 348°
2026-05-09 18:51 46.15388 16.28928 36093 ft 428 kts 348°
2026-05-09 18:52 46.21342 16.28520 36093 ft 428 kts 348°
2026-05-09 18:52 46.27304 16.28110 36097 ft 429 kts 349°
2026-05-09 18:53 46.33220 16.27711 36105 ft 429 kts 349°
2026-05-09 18:53 46.39155 16.27101 35876 ft 423 kts 343°
2026-05-09 18:53 46.42096 16.26410 35643 ft 422 kts 342°
2026-05-09 18:54 46.44995 16.25725 35407 ft 422 kts 343°
2026-05-09 18:54 46.47855 16.25048 35169 ft 422 kts 343°
2026-05-09 18:54 46.50754 16.24360 34936 ft 422 kts 342°
2026-05-09 18:54 46.53646 16.23676 34555 ft 421 kts 342°
2026-05-09 18:55 46.56540 16.22990 33850 ft 420 kts 342°
2026-05-09 18:55 46.59419 16.22303 33337 ft 418 kts 342°
2026-05-09 18:55 46.62302 16.21611 32523 ft 422 kts 343°
2026-05-09 18:55 46.65198 16.20920 31687 ft 417 kts 343°
2026-05-09 18:56 46.67997 16.20270 31240 ft 399 kts 343°
2026-05-09 18:56 46.70687 16.19647 30711 ft 384 kts 343°
2026-05-09 18:56 46.73281 16.19037 30203 ft 372 kts 343°
2026-05-09 18:56 46.75845 16.18418 29644 ft 373 kts 344°
2026-05-09 18:57 46.78395 16.17796 29152 ft 371 kts 344°
2026-05-09 18:57 46.80935 16.17181 28664 ft 369 kts 344°
2026-05-09 18:57 46.83470 16.16569 28176 ft 368 kts 345°
2026-05-09 18:57 46.85989 16.15960 27684 ft 367 kts 345°
2026-05-09 18:58 46.88502 16.15356 27197 ft 365 kts 345°
2026-05-09 18:58 46.90979 16.14760 26724 ft 364 kts 346°
2026-05-09 18:58 46.93476 16.14157 26247 ft 363 kts 346°
2026-05-09 18:58 46.95962 16.13558 25766 ft 361 kts 346°
2026-05-09 18:59 46.98440 16.12963 25286 ft 360 kts 347°
2026-05-09 18:59 47.00910 16.12369 24823 ft 359 kts 347°
2026-05-09 18:59 47.03374 16.11773 24367 ft 358 kts 347°
2026-05-09 18:59 47.05832 16.11177 23913 ft 357 kts 347°
2026-05-09 19:00 47.08283 16.10584 23440 ft 357 kts 347°
2026-05-09 19:00 47.13167 16.09395 22574 ft 354 kts 347°
2026-05-09 19:00 47.15651 16.08777 22170 ft 371 kts 347°
2026-05-09 19:01 47.18218 16.08127 21735 ft 376 kts 347°
2026-05-09 19:01 47.20802 16.07513 21318 ft 377 kts 352°
2026-05-09 19:01 47.23420 16.07716 21021 ft 380 kts
2026-05-09 19:01 47.26023 16.08441 20775 ft 381 kts
2026-05-09 19:02 47.28620 16.09186 20519 ft 380 kts
2026-05-09 19:02 47.31210 16.09945 20274 ft 379 kts
2026-05-09 19:02 47.33790 16.10709 20030 ft 378 kts
2026-05-09 19:02 47.36349 16.11470 19692 ft 373 kts
2026-05-09 19:03 47.38888 16.12223 19220 ft 371 kts
2026-05-09 19:03 47.41416 16.12967 18741 ft 370 kts
2026-05-09 19:03 47.43939 16.13707 18273 ft 368 kts
2026-05-09 19:03 47.46444 16.14445 18116 ft 366 kts
2026-05-09 19:04 47.48941 16.15181 18148 ft 367 kts
2026-05-09 19:04 47.51445 16.15916 18145 ft 367 kts
2026-05-09 19:04 47.53948 16.16653 18146 ft 367 kts
2026-05-09 19:04 47.56455 16.17392 18049 ft 367 kts
2026-05-09 19:05 47.58988 16.18140 17134 ft 376 kts
2026-05-09 19:05 47.61564 16.18903 16495 ft 378 kts
2026-05-09 19:05 47.64137 16.19669 16040 ft 375 kts
2026-05-09 19:05 47.66643 16.20419 15902 ft 359 kts
2026-05-09 19:06 47.69011 16.21136 15768 ft 336 kts
2026-05-09 19:06 47.71232 16.21805 15512 ft 318 kts
2026-05-09 19:06 47.73371 16.22462 15007 ft 312 kts 12°
2026-05-09 19:06 47.75356 16.23674 14604 ft 314 kts 28°
2026-05-09 19:07 47.77074 16.25678 14309 ft 316 kts 45°
2026-05-09 19:07 47.78334 16.28349 14000 ft 317 kts 63°
2026-05-09 19:07 47.79008 16.31463 13670 ft 317 kts 79°
2026-05-09 19:07 47.79380 16.34691 13307 ft 315 kts 76°
2026-05-09 19:08 47.79971 16.37812 12965 ft 312 kts 69°
2026-05-09 19:08 47.80685 16.40851 12627 ft 310 kts 69°
2026-05-09 19:08 47.81400 16.43868 12290 ft 308 kts 69°
2026-05-09 19:08 47.82113 16.46858 11953 ft 306 kts 69°
2026-05-09 19:09 47.82822 16.49832 11614 ft 304 kts 70°
2026-05-09 19:09 47.83524 16.52787 11271 ft 302 kts 70°
2026-05-09 19:09 47.84217 16.55715 11023 ft 296 kts 70°
2026-05-09 19:09 47.84898 16.58589 10772 ft 292 kts 70°
2026-05-09 19:10 47.85567 16.61411 10531 ft 287 kts 70°
2026-05-09 19:10 47.86223 16.64188 10295 ft 282 kts 71°
2026-05-09 19:10 47.86856 16.66903 10041 ft 271 kts 71°
2026-05-09 19:10 47.87458 16.69510 9871 ft 263 kts 71°
2026-05-09 19:11 47.88051 16.72084 9739 ft 263 kts 71°
2026-05-09 19:11 47.88467 16.74716 9602 ft 261 kts 80°
2026-05-09 19:11 47.88858 16.77356 9417 ft 261 kts 76°
2026-05-09 19:11 47.89303 16.79974 9122 ft 260 kts 76°
2026-05-09 19:12 47.89749 16.82575 8778 ft 259 kts 75°
2026-05-09 19:12 47.90193 16.85169 8453 ft 258 kts 75°
2026-05-09 19:12 47.90721 16.87706 8120 ft 256 kts 61°
2026-05-09 19:12 47.91877 16.89659 7756 ft 252 kts 32°
2026-05-09 19:13 47.93391 16.90980 7383 ft 252 kts 26°
2026-05-09 19:13 47.94926 16.92182 6983 ft 247 kts 26°
2026-05-09 19:13 47.96420 16.93341 6542 ft 243 kts 25°
2026-05-09 19:13 47.97950 16.94322 6078 ft 237 kts 12°
2026-05-09 19:14 47.99567 16.94503 5506 ft 234 kts 348°
2026-05-09 19:14 48.01068 16.93608 4890 ft 235 kts 321°
2026-05-09 19:14 48.02038 16.91694 4348 ft 231 kts 288°
2026-05-09 19:14 48.02241 16.89345 3807 ft 231 kts 272°
2026-05-09 19:15 48.02422 16.86943 3184 ft 235 kts 281°
2026-05-09 19:15 48.02739 16.84610 2990 ft 219 kts 283°
2026-05-09 19:15 48.03041 16.82497 2993 ft 199 kts 283°
2026-05-09 19:15 48.03305 16.80559 2994 ft 184 kts 284°
2026-05-09 19:16 48.03776 16.78828 3000 ft 178 kts 303°
2026-05-09 19:16 48.04375 16.77251 3057 ft 172 kts 301°
2026-05-09 19:16 48.04932 16.75704 3001 ft 163 kts 299°
2026-05-09 19:16 48.05430 16.74241 2966 ft 155 kts 299°
2026-05-09 19:17 48.05908 16.72808 2826 ft 153 kts 298°
2026-05-09 19:17 48.06370 16.71409 2682 ft 149 kts 298°
2026-05-09 19:17 48.06825 16.70028 2484 ft 147 kts 298°
2026-05-09 19:17 48.07277 16.68652 2287 ft 147 kts 299°
2026-05-09 19:18 48.07726 16.67282 2090 ft 147 kts 299°
2026-05-09 19:18 48.08177 16.65905 1899 ft 148 kts 300°
2026-05-09 19:18 48.08628 16.64528 1698 ft 147 kts 300°
2026-05-09 19:18 48.09076 16.63159 1487 ft 146 kts 298°
2026-05-09 19:19 48.09519 16.61799 1281 ft 145 kts 298°
2026-05-09 19:19 48.09963 16.60445 1033 ft 145 kts 298°
2026-05-09 19:19 48.10255 16.59553 905 ft 144 kts 299°
2026-05-09 19:19 48.10831 16.57770 658 ft 144 kts 298°
2026-05-09 19:20 48.11256 16.56514 606 ft 118 kts 298°
2026-05-09 19:20 48.11536 16.55643 602 ft 67 kts 295°
2026-05-09 19:20 48.11715 16.55265 592 ft 21 kts 317°
2026-05-09 19:20 48.11785 16.55176 593 ft 4 kts 321°
2026-05-09 19:21 48.11800 16.55158 593 ft 0 kts 322°
2026-05-09 19:22 48.11815 16.55147 593 ft 9 kts 340°
2026-05-09 19:22 48.11880 16.55191 594 ft 12 kts 84°
2026-05-09 19:22 48.11845 16.55299 594 ft 11 kts 169°
2026-05-09 19:22 48.11825 16.55343 594 ft 7 kts 92°
2026-05-09 19:23 48.11801 16.55460 594 ft 13 kts 115°
2026-05-09 19:23 48.11763 16.55578 598 ft 12 kts 116°
2026-05-09 19:23 48.11722 16.55703 599 ft 16 kts 116°
2026-05-09 19:23 48.11669 16.55866 602 ft 19 kts 116°
2026-05-09 19:24 48.11604 16.56061 602 ft 23 kts 116°
2026-05-09 19:24 48.11531 16.56283 601 ft 25 kts 116°
2026-05-09 19:24 48.11449 16.56532 599 ft 27 kts 115°
2026-05-09 19:24 48.11371 16.56784 602 ft 27 kts 115°
2026-05-09 19:25 48.11293 16.57026 614 ft 26 kts 115°
2026-05-09 19:25 48.11239 16.57245 606 ft 17 kts 76°
2026-05-09 19:25 48.11334 16.57348 608 ft 17 kts 26°
2026-05-09 19:25 48.11449 16.57435 613 ft 20 kts 25°
2026-05-09 19:26 48.11592 16.57438 611 ft 22 kts 344°
2026-05-09 19:26 48.11745 16.57374 616 ft 24 kts 345°
2026-05-09 19:26 48.11840 16.57257 610 ft 17 kts 297°
2026-05-09 19:26 48.11904 16.57126 602 ft 15 kts 299°
2026-05-09 19:27 48.11952 16.56983 600 ft 13 kts 295°
2026-05-09 19:27 48.11993 16.56968 600 ft 4 kts 14°
2026-05-09 19:27 48.12009 16.56979 600 ft 1 kts 25°
2026-05-09 19:27 48.12017 16.56985 601 ft 0 kts 25°